CONNECTA IOT-12

导读

CONNECTA IOT-12是一颗计划用于物联网服务的卫星,于2025年6月23日发射,发射国家尚未公布。 当前卫星物联网领域正快速发展,多轨道卫星星座建设加速,卫星与地面蜂窝网络融合成为趋势,可为偏远地区物联网设备提供数据传输服务,CONNECTA IOT-12的部署,将进一步拓展卫星物联网的服务覆盖范围,助力万物互联的实现。

Basic Information
目录编号:
64553
目录名称:
CONNECTA IOT-12
国际标识:
2025-135AB
轨道中心:
EARTH
卫星名称:
CONNECTA IOT-12
卫星全名:
CONNECTA IOT-12
卫星状态:
在轨 (已飞行445 天)
发射日期:
2025-06-23 UTC
国别 :
土耳其 (TR)
星等 :
--
This satellite is enrolled in the Space Conjunction Data Service (SCDS) and the current flight risk assessment level is: No High Risk
Orbit Information
数据来源 国际轨道数据
星历时间: 2026-09-11T14:38:27+0800
9小时前
查看轨道信息
半长轴: 6880.93km
偏心率: 0.0002776
轨道倾角: 97.481°
近地点辐角 93.400°
升交点赤经 9.103°
平近点角 266.756°
近地点: 500.882km
远地点: 504.704km
周期: 94.674分钟
每日圈数: 15.210102
Detailed Information
使用方式:
暂无
2D Orbit Map
3D Orbit Map
Orbit Altitude Analysis Chart
Orbit Inclination Analysis Chart
Orbit Comprehensive Analysis Chart
View Comprehensive Chart
Conjunction Data List
Event ID Objects TCA Miss Dist (km) Collision Risk Probability Collision Risk Index (CRI) Action
CDM_260908-101004-569306-455321
2026-09-08T
10:10:13+0000
0.716 km
远距离
5.865604E-5 中风险 0.7
CDM_260908-092204-569306-455321
2026-09-08T
09:22:53+0000
2.989 km
极远距离
1.035075E-6 低风险 0.35
Miss Distance Evolution Trend with All Objects
Collision Probability Evolution Trend with All Objects